DW8623 Weather Reports


Display with metric or nautical units.
time (UTC)temp
F
wind
direction
speed
MPH
gust
MPH
rain 1hr
in
rain 24hr
in
rain mn
in
humidity
%
barometer
mb
20260510011049 60 77 1.0 3.0 0.00 0.00 0.00 76 1009.9
20260510010545 60 77 1.0 3.0 0.00 0.00 0.00 76 1009.8
20260510010103 61 77 1.0 3.0 0.00 0.00 0.00 75 1009.7
20260510005546 61 77 1.0 3.0 0.00 0.00 0.00 75 1009.7
20260510005046 61 77 2.0 3.0 0.00 0.00 0.00 75 1009.7
20260510004600 61 77 1.0 3.0 0.00 0.00 0.00 74 1009.6
20260510004045 61 77 1.0 3.0 0.00 0.00 0.00 74 1009.5
20260510003545 61 77 1.0 3.0 0.00 0.00 0.00 73 1009.4
20260510003055 62 77 1.0 4.0 0.00 0.00 0.00 73 1009.4
20260510002551 62 77 2.0 4.0 0.00 0.00 0.00 72 1009.4
20260510002048 62 77 3.0 5.0 0.00 0.00 0.00 71 1009.3
20260510001554 63 77 3.0 6.0 0.00 0.00 0.00 71 1009.2
20260510001049 63 50 3.0 6.0 0.00 0.00 0.00 70 1009.3
20260510000548 63 60 3.0 5.0 0.00 0.00 0.00 70 1009.3
20260510000104 64 60 2.0 5.0 0.00 0.00 0.00 69 1009.3
20260509235548 64 81 2.0 5.0 0.00 0.00 0.00 68 1009.3
20260509235048 64 81 3.0 7.0 0.00 0.00 0.00 68 1009.3
20260509234603 64 85 3.0 8.0 0.00 0.00 0.00 67 1009.3
20260509234051 65 80 4.0 8.0 0.00 0.00 0.00 67 1009.2
20260509233546 65 78 3.0 8.0 0.00 0.00 0.00 66 1009.2
20260509233050 65 58 4.0 10.0 0.00 0.00 0.00 66 1009.1
20260509232545 66 68 6.0 10.0 0.00 0.00 0.00 65 1009.0
20260509232049 66 62 4.0 9.0 0.00 0.00 0.00 64 1009.0
20260509231548 67 53 5.0 7.0 0.00 0.00 0.00 63 1009.0
20260509231048 67 65 4.0 7.0 0.00 0.00 0.00 63 1008.9
20260509230545 68 47 3.0 7.0 0.00 0.00 0.00 62 1008.8
20260509230053 68 56 3.0 8.0 0.00 0.00 0.00 61 1008.9
20260509225549 69 42 5.0 8.0 0.00 0.00 0.00 60 1008.9
20260509225045 69 39 2.0 6.0 0.00 0.00 0.00 60 1008.8
20260509224554 69 109 2.0 6.0 0.00 0.00 0.00 61 1008.8
20260509224051 69 108 3.0 6.0 0.00 0.00 0.00 61 1008.8
20260509223548 69 136 3.0 6.0 0.00 0.00 0.00 60 1008.8
20260509223053 69 71 3.0 7.0 0.00 0.00 0.00 61 1008.8
20260509222549 69 80 4.0 7.0 0.00 0.00 0.00 61 1008.8
20260509222048 68 114 3.0 9.0 0.00 0.00 0.00 60 1008.8
20260509221605 68 85 5.0 9.0 0.00 0.00 0.00 61 1008.8
20260509221048 68 109 3.0 8.0 0.00 0.00 0.00 61 1008.7
20260509220551 68 77 4.0 9.0 0.00 0.00 0.00 61 1008.8
20260509220059 68 88 5.0 9.0 0.00 0.00 0.00 61 1008.8
20260509215549 68 55 4.0 8.0 0.00 0.00 0.00 62 1008.9
20260509215045 68 77 4.0 9.0 0.00 0.00 0.00 60 1008.9
20260509214552 68 38 5.0 9.0 0.00 0.00 0.00 61 1009.0
20260509214045 67 70 4.0 8.0 0.00 0.00 0.00 61 1008.9
20260509213545 67 34 5.0 8.0 0.00 0.00 0.00 62 1009.0
20260509213055 66 36 4.0 6.0 0.00 0.00 0.00 64 1009.0
20260509212548 66 67 3.0 7.0 0.00 0.00 0.00 63 1009.1
20260509212050 66 72 4.0 7.0 0.00 0.00 0.00 62 1009.1
20260509211551 66 68 4.0 7.0 0.00 0.00 0.00 63 1009.1
20260509211048 66 61 4.0 8.0 0.00 0.00 0.00 63 1009.1
20260509210548 66 29 5.0 11.0 0.00 0.00 0.00 63 1009.1
20260509210059 66 49 5.0 11.0 0.00 0.00 0.00 62 1009.1
20260509205548 66 68 7.0 10.0 0.00 0.00 0.00 61 1009.1
20260509205048 67 40 7.0 10.0 0.00 0.00 0.00 62 1009.1
20260509204559 67 37 5.0 9.0 0.00 0.00 0.00 61 1009.0
20260509204048 67 79 2.0 8.0 0.00 0.00 0.00 62 1009.0
20260509203547 66 26 3.0 8.0 0.00 0.00 0.00 61 1009.0
20260509203053 67 44 6.0 9.0 0.00 0.00 0.00 61 1009.1
20260509202545 67 40 5.0 10.0 0.00 0.00 0.00 60 1009.2
20260509202048 68 42 6.0 10.0 0.00 0.00 0.00 60 1009.0
20260509201553 68 93 5.0 8.0 0.00 0.00 0.00 60 1009.1
20260509201045 67 59 3.0 7.0 0.00 0.00 0.00 61 1009.0
20260509200545 68 82 4.0 9.0 0.00 0.00 0.00 60 1009.0
20260509200059 67 89 1.0 9.0 0.00 0.00 0.00 63 1009.1
20260509195546 67 136 3.0 8.0 0.00 0.00 0.00 60 1009.1
20260509195048 66 161 1.0 6.0 0.00 0.00 0.00 61 1009.2
20260509194555 66 111 3.0 6.0 0.00 0.00 0.00 60 1009.3
20260509194048 66 118 3.0 8.0 0.00 0.00 0.00 60 1009.4
20260509193551 66 121 4.0 8.0 0.00 0.00 0.00 60 1009.4
20260509193101 66 124 5.0 8.0 0.00 0.00 0.00 59 1009.4
20260509192549 66 84 5.0 8.0 0.00 0.00 0.00 60 1009.4
20260509192052 66 129 3.0 10.0 0.00 0.00 0.00 60 1009.6
20260509191613 66 129 4.0 12.0 0.00 0.00 0.00 59 1009.7
20260509191046 66 155 6.0 12.0 0.00 0.00 0.00 59 1009.7
20260509190547 66 113 3.0 9.0 0.00 0.00 0.00 59 1009.6
20260509190111 67 128 5.0 9.0 0.00 0.00 0.00 57 1009.7
20260509185548 65 142 2.0 8.0 0.00 0.00 0.00 60 1009.6
20260509185045 65 109 5.0 9.0 0.00 0.00 0.00 61 1009.8
20260509184554 64 119 6.0 11.0 0.00 0.00 0.00 60 1009.7
20260509184045 65 142 6.0 11.0 0.00 0.00 0.00 60 1009.8
20260509183545 65 66 6.0 10.0 0.00 0.00 0.00 59 1009.9
20260509183102 65 58 5.0 9.0 0.00 0.00 0.00 60 1009.9
20260509182546 64 92 4.0 9.0 0.00 0.00 0.00 60 1010.0
20260509182045 64 53 4.0 8.0 0.00 0.00 0.00 62 1010.2
20260509181557 63 61 5.0 8.0 0.00 0.00 0.00 60 1010.5
20260509181049 64 74 4.0 9.0 0.00 0.00 0.00 59 1010.7
20260509180548 64 28 5.0 9.0 0.00 0.00 0.00 61 1010.8
20260509180052 64 80 4.0 8.0 0.00 0.00 0.00 60 1010.9
20260509175548 64 60 4.0 8.0 0.00 0.00 0.00 61 1010.8
20260509175048 63 324 2.0 6.0 0.00 0.00 0.00 64 1011.1
20260509174553 63 31 3.0 5.0 0.00 0.00 0.00 63 1011.2
20260509174048 63 348 2.0 6.0 0.00 0.00 0.00 61 1011.3
20260509173547 62 322 2.0 9.0 0.00 0.00 0.00 60 1011.5
20260509173058 63 359 4.0 9.0 0.00 0.00 0.00 59 1011.5
20260509172550 63 26 5.0 8.0 0.00 0.00 0.00 59 1011.1
20260509172046 63 71 3.0 7.0 0.00 0.00 0.00 58 1011.2
20260509171618 63 65 4.0 10.0 0.00 0.00 0.00 57 1011.1
20260509171045 64 76 5.0 10.0 0.00 0.00 0.00 57 1011.1
20260509170545 63 28 5.0 10.0 0.00 0.00 0.00 58 1011.0
20260509170055 63 16 5.0 9.0 0.00 0.00 0.00 59 1011.2
20260509165545 62 341 4.0 10.0 0.00 0.00 0.00 60 1011.3
20260509165045 63 328 5.0 10.0 0.00 0.00 0.00 59 1011.2
20260509164556 63 22 5.0 9.0 0.00 0.00 0.00 58 1011.2
20260509164047 64 65 5.0 9.0 0.00 0.00 0.00 57 1011.2
20260509163551 64 1 4.0 10.0 0.00 0.00 0.00 57 1011.2
20260509163101 64 48 4.0 11.0 0.00 0.00 0.00 57 1011.3
20260509162551 65 24 7.0 11.0 0.00 0.00 0.00 59 1011.2
20260509162048 64 60 5.0 8.0 0.00 0.00 0.00 58 1011.3
20260509161557 64 54 4.0 7.0 0.00 0.00 0.00 56 1011.3
20260509161047 64 18 2.0 7.0 0.00 0.00 0.00 58 1011.2
20260509160546 63 32 2.0 6.0 0.00 0.00 0.00 60 1011.3
20260509160054 63 0 2.0 6.0 0.00 0.00 0.00 59 1011.3
20260509155544 63 336 3.0 6.0 0.00 0.00 0.00 62 1011.2
20260509155045 63 240 2.0 6.0 0.00 0.00 0.00 59 1011.2
20260509154553 63 301 1.0 8.0 0.00 0.00 0.00 64 1011.2
20260509154046 63 306 3.0 8.0 0.00 0.00 0.00 58 1011.5
20260509153545 63 14 1.0 6.0 0.00 0.00 0.00 61 1011.5
20260509153103 63 55 3.0 7.0 0.00 0.00 0.00 58 1011.5
20260509152545 63 85 3.0 9.0 0.00 0.00 0.00 57 1011.5
20260509152045 63 39 6.0 9.0 0.00 0.00 0.00 60 1011.4
20260509151605 63 22 5.0 8.0 0.00 0.00 0.00 66 1011.5
20260509151046 62 45 3.0 6.0 0.00 0.00 0.00 64 1011.7
20260509150545 61 11 1.0 6.0 0.00 0.00 0.00 64 1011.6
20260509150054 60 0 1.0 6.0 0.00 0.00 0.00 61 1011.8
20260509145545 60 87 2.0 6.0 0.00 0.00 0.00 63 1011.8
20260509145044 60 76 1.0 4.0 0.00 0.00 0.00 65 1011.8
20260509144557 60 110 1.0 4.0 0.00 0.00 0.00 66 1011.7
20260509144046 60 70 2.0 4.0 0.00 0.00 0.00 65 1011.7
20260509143548 60 165 1.0 3.0 0.00 0.00 0.00 64 1011.9
20260509143056 60 165 2.0 3.0 0.00 0.00 0.00 64 1012.0
20260509142544 60 0 1.0 3.0 0.00 0.00 0.00 66 1011.9
20260509142045 59 169 1.0 3.0 0.00 0.00 0.00 65 1011.8
20260509141555 59 180 0.0 4.0 0.00 0.00 0.00 65 1011.8
20260509141046 59 173 0.0 4.0 0.00 0.00 0.00 66 1011.8
20260509140547 59 168 1.0 4.0 0.00 0.00 0.00 65 1011.7
20260509140053 59 170 1.0 4.0 0.00 0.00 0.00 66 1011.7
20260509135543 59 169 2.0 4.0 0.00 0.00 0.00 67 1011.6
20260509135046 58 183 0.0 5.0 0.00 0.00 0.00 67 1011.7
20260509134557 58 183 1.0 5.0 0.00 0.00 0.00 67 1011.7
20260509134046 58 177 2.0 5.0 0.00 0.00 0.00 67 1011.7
20260509133545 58 177 2.0 4.0 0.00 0.00 0.00 66 1011.5
20260509133049 58 216 2.0 4.0 0.00 0.00 0.00 66 1011.4
20260509132544 58 195 1.0 5.0 0.00 0.00 0.00 65 1011.4
20260509132049 57 200 2.0 5.0 0.00 0.00 0.00 65 1011.5
20260509131609 58 188 1.0 6.0 0.00 0.00 0.00 65 1011.5
20260509131046 58 172 3.0 8.0 0.00 0.00 0.00 66 1011.4
20260509130548 58 218 2.0 8.0 0.00 0.00 0.00 66 1011.6
20260509130125 58 160 4.0 8.0 0.00 0.00 0.00 66 1011.6
20260509125547 58 190 2.0 8.0 0.00 0.00 0.00 65 1011.7
20260509125051 58 172 2.0 5.0 0.00 0.00 0.00 66 1011.7
20260509124554 58 184 3.0 5.0 0.00 0.00 0.00 65 1011.7
20260509124046 58 200 1.0 4.0 0.00 0.00 0.00 65 1011.8
20260509123546 57 173 2.0 4.0 0.00 0.00 0.00 64 1011.7
20260509123101 57 159 2.0 3.0 0.00 0.00 0.00 63 1011.6
20260509122546 57 195 1.0 2.0 0.00 0.00 0.00 64 1011.6
20260509122045 57 0 0.0 1.0 0.00 0.00 0.00 65 1011.7
20260509121554 57 0 0.0 0.0 0.00 0.00 0.00 65 1011.7
20260509121050 57 0 0.0 1.0 0.00 0.00 0.00 66 1011.6
20260509120548 57 0 0.0 2.0 0.00 0.00 0.00 66 1011.6
20260509120101 56 0 0.0 2.0 0.00 0.00 0.00 66 1011.6
20260509115545 56 262 1.0 2.0 0.00 0.00 0.00 66 1011.5
20260509115045 56 0 0.0 2.0 0.00 0.00 0.00 68 1011.4
20260509114605 56 262 0.0 2.0 0.00 0.00 0.00 67 1011.4
20260509114045 56 0 0.0 2.0 0.00 0.00 0.00 67 1011.4
20260509113546 55 126 0.0 2.0 0.00 0.00 0.00 67 1011.4
20260509113055 55 192 0.0 2.0 0.00 0.00 0.00 67 1011.3
20260509112548 55 192 0.0 2.0 0.00 0.00 0.00 67 1011.2
20260509112049 55 0 0.0 2.0 0.00 0.00 0.00 67 1011.1
20260509111552 55 192 0.0 2.0 0.00 0.00 0.00 68 1011.0
20260509111048 55 0 1.0 2.0 0.00 0.00 0.00 69 1011.0
20260509110545 55 0 0.0 2.0 0.00 0.00 0.00 69 1010.9
20260509110103 55 0 0.0 2.0 0.00 0.00 0.00 68 1010.8
20260509105548 54 0 0.0 2.0 0.00 0.00 0.00 67 1010.7
20260509105048 54 192 0.0 3.0 0.00 0.00 0.00 66 1010.7
20260509104557 54 0 1.0 3.0 0.00 0.00 0.00 65 1010.6
20260509104048 54 192 0.0 3.0 0.00 0.00 0.00 65 1010.6
20260509103548 54 192 1.0 3.0 0.00 0.00 0.00 65 1010.6
20260509103051 54 224 1.0 3.0 0.00 0.00 0.00 66 1010.7
20260509102545 54 0 1.0 4.0 0.00 0.00 0.00 65 1010.7
20260509102046 54 189 2.0 4.0 0.00 0.00 0.00 65 1010.7
20260509101549 54 189 1.0 3.0 0.00 0.00 0.00 65 1010.8
20260509101052 54 189 1.0 4.0 0.00 0.00 0.00 65 1010.8
20260509100545 54 189 1.0 4.0 0.00 0.00 0.00 65 1010.7
20260509100054 54 182 1.0 5.0 0.00 0.00 0.00 65 1010.6
20260509095549 54 188 2.0 5.0 0.00 0.00 0.00 65 1010.6
20260509095045 54 219 2.0 5.0 0.00 0.00 0.00 65 1010.7
20260509094559 54 216 2.0 6.0 0.00 0.00 0.00 65 1010.7
20260509094048 54 222 2.0 7.0 0.00 0.00 0.00 65 1010.7
20260509093548 54 269 3.0 7.0 0.00 0.00 0.00 65 1010.6
20260509093052 54 195 2.0 7.0 0.00 0.00 0.00 66 1010.8
20260509092548 54 230 3.0 7.0 0.00 0.00 0.00 66 1010.7
20260509092048 54 200 3.0 7.0 0.00 0.00 0.00 67 1010.8
20260509091600 54 195 3.0 7.0 0.00 0.00 0.00 67 1010.8
20260509091048 54 232 3.0 7.0 0.00 0.00 0.00 68 1010.8
20260509090545 53 200 2.0 5.0 0.00 0.00 0.00 69 1010.8
20260509085546 53 192 3.0 8.0 0.00 0.00 0.00 70 1010.8
20260509085046 53 190 3.0 8.0 0.00 0.00 0.00 70 1010.9
20260509084601 52 182 3.0 8.0 0.00 0.00 0.00 72 1011.1
20260509084046 52 195 2.0 5.0 0.00 0.00 0.00 73 1011.0
20260509083547 52 212 2.0 5.0 0.00 0.00 0.00 73 1011.0
20260509083057 52 188 3.0 5.0 0.00 0.00 0.00 74 1011.1
20260509082547 52 181 3.0 5.0 0.00 0.00 0.00 74 1011.1
20260509082049 52 182 3.0 5.0 0.00 0.00 0.00 75 1011.1
20260509081553 51 195 3.0 5.0 0.00 0.00 0.00 75 1011.1
20260509081046 51 200 3.0 5.0 0.00 0.00 0.00 74 1011.1
20260509080547 51 189 2.0 5.0 0.00 0.00 0.00 75 1011.3
20260509080052 51 195 2.0 4.0 0.00 0.00 0.00 75 1011.2
20260509075545 51 180 2.0 4.0 0.00 0.00 0.00 76 1011.3
20260509075048 51 190 2.0 3.0 0.00 0.00 0.00 76 1011.4
20260509074601 51 192 2.0 3.0 0.00 0.00 0.00 76 1011.4
20260509074050 51 192 0.0 3.0 0.00 0.00 0.00 76 1011.3
20260509073546 51 0 0.0 0.0 0.00 0.00 0.00 75 1011.3
20260509073051 51 0 0.0 0.0 0.00 0.00 0.00 75 1011.3
20260509072548 51 0 0.0 0.0 0.00 0.00 0.00 75 1011.3
20260509072048 51 0 0.0 0.0 0.00 0.00 0.00 75 1011.4
20260509071557 51 0 0.0 0.0 0.00 0.00 0.00 75 1011.4
20260509071048 51 0 0.0 0.0 0.00 0.00 0.00 75 1011.5
20260509070546 51 0 0.0 2.0 0.00 0.00 0.00 74 1011.5
20260509065545 52 195 1.0 3.0 0.00 0.00 0.00 73 1011.5
20260509065045 52 195 1.0 3.0 0.00 0.00 0.00 73 1011.6
20260509064549 52 195 0.0 4.0 0.00 0.00 0.00 73 1011.5
20260509064045 52 195 1.0 4.0 0.00 0.00 0.00 72 1011.6
20260509063548 52 195 2.0 4.0 0.00 0.00 0.00 72 1011.6
20260509063054 52 195 1.0 4.0 0.00 0.00 0.00 72 1011.7
20260509062545 52 170 1.0 4.0 0.00 0.00 0.00 72 1011.7
20260509062046 52 170 2.0 4.0 0.00 0.00 0.00 72 1011.7
20260509061602 52 180 2.0 4.0 0.00 0.00 0.00 72 1011.8
20260509061045 52 181 3.0 4.0 0.00 0.00 0.00 72 1011.8
20260509060549 52 166 2.0 4.0 0.00 0.00 0.00 72 1011.8
20260509060057 52 178 2.0 4.0 0.00 0.00 0.00 71 1011.9
20260509055548 52 169 2.0 4.0 0.00 0.00 0.00 70 1011.9
20260509055048 52 167 2.0 4.0 0.00 0.00 0.00 70 1011.9
20260509054611 52 174 2.0 4.0 0.00 0.00 0.00 70 1012.0
20260509054049 52 171 2.0 4.0 0.00 0.00 0.00 69 1012.0
20260509053547 53 173 1.0 3.0 0.00 0.00 0.00 69 1012.1
20260509053143 53 165 1.0 3.0 0.00 0.00 0.00 69 1012.1
20260509052548 53 162 2.0 3.0 0.00 0.00 0.00 68 1012.0
20260509052045 53 162 1.0 3.0 0.00 0.00 0.00 68 1012.2
20260509051557 53 162 1.0 3.0 0.00 0.00 0.00 68 1012.1
20260509051045 53 161 1.0 3.0 0.00 0.00 0.00 68 1012.1
20260509050546 53 161 1.0 3.0 0.00 0.00 0.00 68 1012.1
20260509050056 53 138 0.0 4.0 0.00 0.00 0.00 68 1012.1
20260509045545 53 0 1.0 4.0 0.00 0.00 0.00 67 1012.1
20260509045047 53 0 1.0 3.0 0.00 0.00 0.00 66 1012.2
20260509044553 54 128 1.0 4.0 0.00 0.00 0.00 65 1012.1
20260509044045 54 128 1.0 4.0 0.00 0.00 0.00 65 1012.2
20260509043548 54 138 0.0 3.0 0.00 0.00 0.00 65 1012.2
20260509043058 54 138 0.0 3.0 0.00 0.00 0.00 65 1012.2
20260509042548 54 138 0.0 3.0 0.00 0.00 0.00 65 1012.2
20260509042047 54 0 0.0 3.0 0.00 0.00 0.00 65 1012.2
20260509041556 54 161 0.0 2.0 0.00 0.00 0.00 64 1012.2
20260509041045 55 0 0.0 5.0 0.00 0.00 0.00 65 1012.3
20260509040544 55 170 1.0 5.0 0.00 0.00 0.00 65 1012.3
20260509040111 55 165 2.0 4.0 0.00 0.00 0.00 64 1012.3
20260509035545 55 133 1.0 4.0 0.00 0.00 0.00 64 1012.2
20260509035052 55 160 1.0 3.0 0.00 0.00 0.00 63 1012.3
20260509034619 55 148 1.0 5.0 0.00 0.00 0.00 62 1012.3
20260509034045 56 148 2.0 5.0 0.00 0.00 0.00 62 1012.3
20260509033545 56 147 1.0 4.0 0.00 0.00 0.00 61 1012.3
20260509033051 56 0 1.0 2.0 0.00 0.00 0.00 60 1012.3
20260509032548 56 147 1.0 2.0 0.00 0.00 0.00 60 1012.3
20260509032046 57 147 0.0 2.0 0.00 0.00 0.00 59 1012.3
20260509031552 57 0 0.0 0.0 0.00 0.00 0.00 59 1012.3
20260509031048 57 0 0.0 0.0 0.00 0.00 0.00 59 1012.4
20260509030546 57 0 0.0 3.0 0.00 0.00 0.00 58 1012.4
20260509030105 57 0 0.0 3.0 0.00 0.00 0.00 57 1012.5
20260509025545 58 0 0.0 3.0 0.00 0.00 0.00 57 1012.6
20260509025047 58 0 0.0 1.0 0.00 0.00 0.00 57 1012.5
20260509024551 58 0 0.0 2.0 0.00 0.00 0.00 57 1012.5
20260509024047 58 149 0.0 3.0 0.00 0.00 0.00 57 1012.6
20260509023548 58 148 0.0 3.0 0.00 0.00 0.00 57 1012.5
20260509023050 58 311 0.0 2.0 0.00 0.00 0.00 58 1012.5
20260509022548 59 0 0.0 2.0 0.00 0.00 0.00 59 1012.5
20260509022045 59 0 0.0 2.0 0.00 0.00 0.00 57 1012.6
20260509021551 59 0 0.0 1.0 0.00 0.00 0.00 57 1012.7
20260509021047 59 0 0.0 1.0 0.00 0.00 0.00 57 1012.5
20260509020548 59 0 0.0 1.0 0.00 0.00 0.00 56 1012.7
20260509020053 59 0 0.0 1.0 0.00 0.00 0.00 55 1012.5
20260509015548 59 0 0.0 1.0 0.00 0.00 0.00 54 1012.5
20260509015048 60 0 0.0 1.0 0.00 0.00 0.00 55 1012.5
20260509014550 60 0 0.0 1.0 0.00 0.00 0.00 55 1012.5
20260509014046 60 0 0.0 1.0 0.00 0.00 0.00 53 1012.5
20260509013548 60 0 0.0 1.0 0.00 0.00 0.00 55 1012.5
20260509013108 60 0 0.0 1.0 0.00 0.00 0.00 53 1012.5
20260509012545 60 0 0.0 1.0 0.00 0.00 0.00 56 1012.5
20260509012051 60 0 0.0 2.0 0.00 0.00 0.00 55 1012.6
20260509011603 61 0 0.0 3.0 0.00 0.00 0.00 52 1012.6